Theta_e
298 299 299 299 299 300 300 300 301 300 300 302 303 303 304 304 303 303 303 302 302 304 305 305 305 305 305 305 304 304 305 306 306 307 308 308 308 309 310 311 311 308 306 305 306 307 308 307 307 308 307 308 309 308 308 309 308 309 310 310 311 311 312 312 311 310 310 311 312 311 312 312 311 311 311 311 311 311 310 311 313 312 310 313 314 311 320
298 298 299 299 299 299 300 300 300 300 300 301 302 304 304 304 304 304 304 303 303 304 305 306 305 306 306 305 306 306 306 306 307 308 309 310 310 310 311 311 311 309 308 306 306 307 307 307 308 308 308 308 307 308 308 309 309 310 311 311 311 310 311 312 311 311 312 312 311 311 312 312 312 311 311 312 312 313 313 311 314 313 310 312 312 309 320
298 298 298 299 299 299 299 300 300 300 300 301 303 304 304 304 304 304 304 304 304 304 304 305 305 305 305 306 307 308 308 308 308 308 309 309 310 312 312 311 310 309 308 307 306 307 308 307 308 308 308 307 306 307 308 309 309 309 312 313 310 310 311 311 312 312 312 312 311 311 311 311 312 312 312 312 311 312 313 312 313 312 310 311 309 309 322
298 298 298 298 299 298 299 300 300 300 300 301 303 304 304 305 305 304 304 304 304 304 304 304 304 305 306 307 308 308 309 310 308 308 309 309 310 312 312 311 310 308 308 308 307 307 307 308 308 308 308 307 306 306 308 308 309 312 315 314 310 311 313 313 312 312 311 311 311 312 312 311 311 312 312 312 312 313 313 312 311 311 310 311 310 313 325
298 297 297 298 298 298 299 299 300 300 300 301 303 304 304 305 305 305 305 305 305 305 305 305 305 306 306 307 308 308 310 311 309 308 308 308 311 313 313 312 311 308 307 309 308 307 308 308 308 309 310 309 306 306 307 307 312 315 313 311 311 311 312 313 314 314 313 313 313 313 313 312 311 312 312 313 313 313 313 312 311 312 312 311 313 315 320
297 297 297 298 298 298 298 299 300 300 300 301 302 304 305 306 305 305 306 306 306 307 306 307 307 307 307 307 308 310 310 310 310 310 309 309 311 314 314 313 312 310 309 309 310 308 308 309 310 311 311 309 307 306 306 307 312 313 309 309 312 311 310 312 314 314 314 315 315 314 313 312 312 312 313 313 314 313 313 313 313 314 313 312 317 317 315
297 297 297 297 298 298 298 298 299 300 300 301 302 304 305 305 304 304 305 305 306 307 307 308 309 309 309 309 309 310 311 310 311 310 311 312 311 313 315 314 312 312 311 310 310 311 311 310 312 313 311 310 308 307 307 307 309 309 308 310 312 311 311 313 313 312 313 316 316 314 314 314 313 313 312 313 314 313 314 315 314 315 315 314 319 319 315
297 297 297 297 298 298 298 298 299 299 300 301 302 302 302 302 302 303 303 304 306 307 308 309 310 310 310 310 310 310 311 311 311 310 312 314 312 313 316 315 313 313 313 312 314 317 318 315 313 314 314 312 310 310 309 308 308 308 309 312 313 311 312 313 312 311 313 317 317 315 314 315 314 314 313 313 314 314 315 316 315 316 316 316 318 318 317
296 296 297 297 297 298 298 298 298 299 300 302 302 301 301 301 301 302 302 304 307 308 308 309 310 311 311 310 311 311 311 312 312 310 310 312 312 313 314 315 315 315 315 316 317 318 319 319 317 316 316 314 313 312 311 309 309 310 311 313 313 311 312 313 312 310 311 316 317 316 316 316 315 314 314 314 314 314 315 315 316 317 316 317 318 316 317
296 296 296 297 297 298 297 298 298 299 300 301 301 302 302 302 302 302 302 304 307 308 309 310 310 311 311 311 311 312 312 311 312 311 310 311 311 312 313 315 317 317 317 317 316 316 317 319 318 317 317 316 315 316 313 309 310 311 312 313 311 310 311 313 311 309 311 315 318 317 316 315 315 317 320 319 316 316 318 319 321 320 317 317 316 314 318
296 296 296 296 297 297 298 298 298 298 299 301 301 302 302 302 302 303 302 304 307 308 309 311 311 311 311 312 312 312 312 312 312 313 312 312 312 312 312 315 316 317 316 314 314 314 316 317 317 317 317 316 316 317 315 311 310 311 311 311 311 310 310 312 312 310 311 316 319 316 314 315 317 321 324 325 322 319 319 320 321 319 318 320 321 320 324
296 296 296 296 297 297 298 298 298 298 299 300 301 302 302 301 302 303 303 304 308 309 309 310 310 311 312 312 312 312 313 312 312 313 313 313 314 313 313 314 316 314 313 312 313 315 316 317 317 316 316 316 316 316 316 314 311 311 311 311 312 312 310 312 313 310 311 316 318 314 314 318 322 323 321 322 323 322 320 321 321 319 320 325 325 325 329
296 296 296 296 297 297 297 297 298 298 298 300 301 302 302 301 302 304 304 305 308 309 309 309 309 311 312 312 313 313 313 312 312 313 313 314 315 315 313 313 314 313 312 313 315 317 317 317 316 315 315 315 315 316 318 317 314 313 312 311 313 313 311 312 312 311 313 316 315 314 316 321 325 323 320 319 321 322 320 321 321 320 322 323 321 323 328
295 295 296 296 296 297 297 297 297 298 298 299 301 302 302 302 303 303 304 306 308 308 309 309 310 311 311 312 313 313 313 313 313 313 314 314 315 315 313 313 313 312 312 314 316 317 317 315 313 313 313 313 314 316 319 319 317 315 314 313 313 313 312 312 313 313 314 314 314 314 317 321 324 326 323 322 324 323 320 318 319 320 321 320 321 324 328
295 295 295 296 296 296 297 297 297 298 298 299 301 302 302 302 303 303 304 305 306 308 309 310 310 310 311 312 312 313 313 313 313 313 314 314 315 314 313 312 312 312 313 316 317 316 315 314 312 312 312 311 312 314 317 319 319 317 316 315 314 313 313 312 313 314 314 313 313 315 315 316 320 325 326 324 325 326 324 320 320 322 322 320 322 326 328
294 295 295 296 296 296 297 297 297 298 298 298 300 302 303 302 303 303 304 304 306 309 309 310 309 310 311 311 312 313 313 312 313 313 314 315 314 313 311 312 313 315 315 316 317 315 314 314 313 312 313 313 313 314 316 318 319 319 317 316 314 314 314 313 313 314 314 312 313 315 315 314 317 325 327 324 323 325 325 320 319 323 323 320 321 325 327
294 295 295 295 296 296 297 297 297 297 298 298 299 301 303 302 302 303 304 305 306 308 309 308 309 310 311 311 311 312 313 313 312 313 314 314 314 313 312 313 314 315 315 316 317 316 314 314 313 313 315 318 317 315 315 317 320 321 318 316 314 314 313 313 313 313 314 313 313 313 314 316 322 326 324 321 321 324 324 319 318 323 325 321 321 325 326
294 294 295 295 295 296 296 297 297 297 298 298 298 301 302 302 302 302 304 305 306 308 309 309 309 309 310 310 311 312 312 313 313 313 313 313 313 313 313 314 315 313 314 317 318 316 315 315 316 315 316 319 319 317 315 316 319 321 319 317 315 314 313 312 312 312 313 315 314 312 313 319 325 324 321 320 321 322 321 318 319 323 323 321 322 325 326
294 294 294 294 295 295 296 296 297 297 297 297 298 300 302 302 302 302 303 305 306 307 308 308 309 309 309 310 311 311 311 312 313 313 313 314 314 313 312 313 314 314 315 316 317 316 316 316 318 317 316 318 319 318 317 317 318 320 320 318 317 315 313 313 313 312 312 313 314 313 313 319 323 322 321 320 320 319 319 320 320 322 322 322 323 324 325
293 294 294 294 295 295 295 296 297 297 297 297 298 299 301 301 301 301 302 304 305 305 307 308 309 309 309 310 309 308 308 312 313 313 313 313 313 313 313 314 315 314 316 316 316 316 317 317 318 318 317 318 319 318 317 318 319 319 320 320 320 317 314 313 313 313 313 313 314 313 314 318 322 321 320 320 320 319 321 322 321 321 322 322 323 324 324
293 293 294 294 294 295 295 296 296 296 297 297 297 299 301 301 301 300 301 302 303 305 307 308 308 308 308 309 309 307 308 311 313 313 314 314 313 313 313 314 315 314 314 315 316 316 317 318 317 317 317 318 319 318 317 317 318 319 320 320 320 319 316 314 314 314 313 313 314 316 317 320 322 321 320 321 320 319 321 323 322 322 322 322 322 324 323
293 293 293 294 294 295 295 296 296 296 297 297 297 298 300 301 300 300 301 301 302 303 306 306 306 307 307 307 308 308 308 309 311 312 313 313 314 314 314 315 316 313 311 313 316 316 316 317 317 316 317 318 317 317 316 315 316 319 320 318 319 320 319 318 317 317 316 315 316 319 319 320 321 320 319 319 319 317 318 321 322 322 322 322 322 323 322
293 293 293 293 294 294 295 295 296 296 297 297 297 298 299 300 300 300 301 301 302 303 305 306 307 308 309 309 308 308 308 308 309 311 312 313 313 313 314 315 315 313 310 312 317 317 317 317 317 316 317 317 316 317 316 314 315 318 319 318 319 320 319 319 319 319 318 318 319 319 319 320 320 318 316 316 317 316 317 319 321 321 321 321 321 322 322
293 293 293 293 294 294 294 295 296 296 296 296 297 298 299 299 300 300 302 303 304 306 308 309 309 309 308 308 308 308 308 308 308 309 311 313 313 313 313 314 314 314 314 314 315 315 315 316 316 316 317 317 316 316 315 314 315 316 316 317 319 319 318 318 320 319 318 318 320 320 320 319 319 317 316 316 316 315 316 318 320 320 319 320 320 321 321
293 293 293 293 293 294 294 295 295 296 296 296 297 298 299 300 300 300 302 304 305 306 308 309 309 308 307 307 308 308 308 307 308 310 312 313 313 313 314 314 314 315 315 314 314 314 314 314 315 316 316 317 316 316 315 315 316 316 315 316 319 319 317 318 319 319 318 319 320 319 318 318 317 317 317 317 316 316 315 316 318 319 318 318 319 319 319
293 293 293 293 293 294 294 295 295 296 296 296 297 298 299 300 301 300 301 304 306 306 307 308 308 309 309 308 308 307 307 307 308 310 312 312 312 313 314 315 314 315 315 313 314 314 313 314 315 315 316 317 316 316 317 316 316 317 316 317 318 317 316 318 319 319 318 318 319 319 318 318 317 317 317 317 317 316 316 316 317 318 318 318 318 317 317
293 293 293 293 293 294 294 295 295 296 296 296 297 298 299 300 301 301 302 305 307 308 307 307 308 309 309 309 308 307 307 308 308 310 311 312 312 312 314 314 314 315 315 314 313 312 312 313 314 314 315 317 316 316 317 317 316 316 317 318 317 316 317 318 317 317 317 318 319 319 319 320 319 318 317 317 316 317 317 317 317 318 318 318 317 317 316
293 293 293 293 294 294 294 295 295 295 296 296 297 298 300 301 301 301 302 304 307 308 307 306 308 309 309 309 308 307 307 307 307 310 312 312 312 313 314 314 314 315 316 315 313 312 312 313 314 314 314 315 316 316 317 316 316 317 318 318 317 317 319 319 317 317 318 318 318 318 319 320 319 317 317 316 316 316 317 318 318 318 317 317 317 316 316
293 293 293 293 294 294 294 295 295 295 295 296 297 300 302 303 302 302 302 302 304 306 306 306 307 308 309 309 308 309 308 307 307 310 311 311 313 314 314 314 315 315 315 313 312 312 312 312 313 313 314 314 316 317 316 316 317 317 318 318 317 317 318 318 318 319 319 317 316 317 318 318 317 315 315 315 314 315 317 317 317 317 316 316 316 316 315
293 293 293 293 294 294 294 294 294 294 295 297 298 301 304 306 304 302 302 303 303 305 305 306 307 308 308 309 309 309 308 307 308 311 311 311 312 313 313 313 314 313 312 312 311 311 312 311 312 313 313 312 314 316 316 316 317 317 317 316 316 315 315 315 316 317 317 316 314 315 316 316 313 312 313 313 312 313 315 315 315 316 316 316 315 315 315
293 293 293 293 294 294 294 293 293 294 295 297 299 301 303 307 306 303 302 302 303 304 305 305 307 307 307 309 310 309 307 306 308 310 311 311 311 310 310 311 311 311 311 311 311 310 311 311 312 313 313 310 310 314 316 316 316 317 317 316 315 315 315 314 314 314 314 313 312 312 313 313 312 312 313 312 311 312 313 313 314 314 314 314 315 315 315
293 293 293 293 294 294 293 293 293 294 296 297 298 300 302 303 302 302 302 301 302 305 306 306 307 307 307 308 310 308 306 307 309 308 309 310 310 310 309 309 310 309 309 309 310 310 310 310 311 313 313 310 310 313 315 314 315 317 317 315 314 314 314 314 313 312 312 312 312 314 315 314 313 313 313 311 310 311 311 311 312 313 313 313 315 315 315
293 293 293 294 293 293 292 292 293 294 296 296 297 298 298 298 298 299 300 300 303 306 306 306 307 307 307 308 309 308 307 308 309 308 307 308 309 309 309 309 309 309 308 308 310 309 309 309 310 312 312 310 310 313 314 313 315 317 316 314 314 313 313 313 313 312 311 311 312 314 315 315 313 311 310 310 310 310 310 310 311 312 312 312 313 313 313
293 293 293 293 293 292 292 292 293 295 296 298 299 300 300 299 299 297 298 300 304 306 305 306 307 307 307 307 308 308 307 308 308 307 306 307 308 308 309 309 309 308 308 309 309 308 309 310 310 311 311 310 311 312 313 314 315 315 314 313 313 313 312 312 312 311 311 311 311 311 311 312 311 310 310 310 310 310 310 310 310 310 311 311 312 312 312
293 293 293 292 292 292 293 294 296 298 301 302 303 302 301 300 299 299 300 303 306 306 305 305 306 306 306 306 307 307 307 307 307 307 306 306 307 307 308 308 308 308 308 309 308 309 310 309 308 309 310 310 310 310 312 313 315 315 314 314 313 312 313 313 312 311 311 310 310 310 310 310 310 310 310 310 309 309 310 310 310 310 311 311 312 311 311
293 293 292 292 292 294 296 298 300 302 303 303 302 301 300 300 300 301 302 304 306 307 306 305 305 305 305 306 306 306 307 307 307 307 306 306 306 306 306 307 307 307 308 308 308 309 309 308 308 308 309 308 308 310 311 312 314 315 314 314 313 313 314 314 313 311 311 310 311 311 310 310 311 311 310 310 309 309 309 309 310 310 311 311 311 310 310
293 292 292 293 296 298 301 302 302 302 301 300 299 299 300 300 302 303 304 305 305 305 305 305 305 305 306 306 306 306 306 307 307 307 306 305 305 304 304 305 305 305 306 308 308 307 308 308 307 307 307 307 308 310 311 312 313 315 315 314 313 312 312 312 311 311 311 311 311 311 310 310 310 310 310 309 309 309 309 310 310 310 310 310 310 310 310
293 293 294 296 298 300 302 302 300 299 298 298 299 301 302 302 303 304 305 305 305 305 305 304 305 306 306 306 306 306 306 306 307 306 305 304 304 304 303 303 304 304 305 306 306 305 306 307 307 306 306 306 307 309 310 311 312 314 314 313 312 311 311 311 311 311 312 312 311 311 310 310 310 310 309 309 309 309 309 309 309 309 310 310 309 310 310
293 295 296 297 298 299 301 300 298 297 298 299 301 303 303 302 302 303 304 304 305 306 305 305 305 306 307 307 307 307 306 305 306 306 305 304 304 304 303 303 303 303 303 305 305 305 305 305 305 305 305 306 308 310 310 310 310 312 312 312 312 311 311 310 311 312 312 311 311 310 310 310 310 310 310 309 309 309 309 309 309 309 310 310 310 309 309
294 295 296 296 297 298 298 297 296 297 300 302 302 303 302 302 302 303 304 305 305 306 306 307 307 307 308 307 307 307 307 306 306 307 306 304 304 304 303 303 303 303 303 303 304 305 305 304 304 305 305 305 308 311 311 310 310 311 312 311 311 311 310 310 311 312 311 310 310 310 310 310 310 309 309 309 308 308 308 308 309 310 310 310 309 308 308
294 294 294 295 296 296 296 296 297 299 301 302 302 302 303 303 302 302 303 304 305 305 306 307 308 308 308 307 307 307 307 307 306 306 305 304 304 303 303 303 303 302 302 303 303 304 305 304 304 304 304 305 308 311 311 311 311 311 311 311 311 310 310 310 311 311 311 310 309 309 310 310 309 309 309 309 309 308 308 308 309 310 310 309 308 308 307
294 293 293 294 295 295 296 297 299 300 302 302 303 303 303 302 302 302 302 304 305 305 305 307 307 307 307 307 307 307 307 306 305 305 304 303 302 302 303 303 302 301 302 303 304 304 305 304 303 304 305 306 308 310 311 312 311 311 311 311 311 310 310 310 310 310 311 310 309 309 310 311 310 310 310 310 309 309 309 309 309 309 309 308 307 306 305
293 293 294 294 295 296 297 299 301 302 302 302 303 303 303 303 303 303 303 303 303 304 304 305 305 304 304 305 306 306 306 304 304 305 304 303 302 302 302 302 302 302 303 303 304 304 304 303 302 303 305 306 307 310 312 312 311 311 311 311 311 312 311 311 310 310 310 311 310 310 310 310 310 309 309 309 309 309 309 309 308 308 307 306 306 305 304
294 295 295 296 297 298 300 301 302 303 303 303 302 303 304 303 302 303 304 303 303 304 304 304 304 305 305 305 306 306 305 303 303 304 303 302 302 302 302 302 302 302 302 303 303 303 303 302 302 304 305 305 306 309 311 312 311 311 311 310 311 311 311 311 310 310 309 309 310 310 310 310 309 309 309 308 308 308 308 308 307 307 306 305 305 304 304
294 296 297 298 299 299 300 301 301 302 304 304 302 302 303 303 303 304 303 303 303 304 304 304 304 305 305 305 305 304 304 303 303 303 303 302 302 302 302 302 302 302 302 302 302 301 301 302 303 304 305 305 306 309 311 311 311 311 311 310 310 310 310 310 310 309 308 308 310 310 309 309 309 309 308 308 308 307 307 307 306 305 305 304 304 303 303
294 296 298 300 300 299 299 301 302 302 303 303 302 302 303 304 304 303 302 302 303 303 303 303 304 304 305 305 304 304 304 303 303 303 302 302 302 302 302 302 302 302 301 301 301 301 301 302 303 304 305 306 307 309 311 311 311 311 311 310 310 310 310 310 309 309 308 309 310 310 309 309 309 309 309 308 307 306 306 306 305 305 305 304 303 303 302
295 296 297 299 300 299 299 301 302 302 302 302 302 302 302 302 302 302 301 301 302 302 302 303 303 304 304 304 304 304 304 304 303 302 301 302 302 302 301 301 302 302 301 301 301 301 302 303 304 305 305 306 308 309 310 311 311 311 310 310 310 309 310 309 309 309 309 309 309 309 309 309 308 308 308 308 307 307 306 305 305 305 305 304 303 302 302
295 297 298 299 300 300 300 301 301 301 301 301 301 301 301 301 302 301 301 300 301 302 302 303 304 304 303 303 304 304 304 304 302 302 302 302 302 301 301 301 301 301 301 301 301 302 303 304 305 306 305 306 308 310 310 310 311 311 310 310 310 309 309 309 309 309 309 309 309 309 309 309 308 308 308 308 308 307 306 305 305 305 305 304 303 303 303
294 296 297 298 299 300 300 301 302 301 301 300 300 300 300 301 301 301 300 300 301 302 302 302 303 303 304 303 303 303 304 303 303 302 302 302 301 301 301 300 301 301 302 302 303 304 304 305 306 306 305 306 308 310 310 310 310 311 310 310 309 309 309 309 309 309 310 309 309 309 309 308 308 308 308 308 308 307 306 305 304 304 304 304 303 303 303
294 295 296 297 299 300 301 301 301 301 301 300 300 300 300 301 301 301 300 300 301 302 302 302 302 303 303 303 303 303 304 304 303 303 302 302 302 302 301 301 301 302 302 303 304 304 305 305 306 307 306 306 308 309 310 310 310 310 310 310 310 310 310 309 309 309 309 309 309 309 309 308 308 308 308 307 307 306 305 305 304 304 304 304 304 304 304
294 295 296 297 299 300 301 301 301 301 301 301 301 300 300 300 301 300 300 300 301 302 303 303 302 303 303 303 303 303 303 303 303 303 303 303 302 302 302 303 303 303 304 305 305 305 305 305 306 307 307 307 308 309 310 310 309 310 310 310 310 309 309 309 309 309 309 308 308 308 308 308 308 307 307 307 306 306 305 305 304 304 304 304 303 303 303
295 295 296 297 297 298 299 300 300 301 301 301 300 300 299 300 300 300 300 300 301 301 301 302 302 303 303 303 302 302 303 303 303 303 303 303 303 303 303 304 304 304 305 305 305 305 306 306 306 306 306 306 307 309 310 310 309 309 310 310 309 309 310 309 309 309 309 308 308 308 308 307 307 306 306 306 306 305 305 305 304 304 304 304 303 303 303
Wind_Speed
24 24 24 24 24 24 25 26 26 25 22 15 9 7 2 2 3 1 3 3 3 4 4 3 2 4 5 5 7 8 5 4 4 2 3 5 5 4 3 3 2 4 7 10 12 10 7 8 7 8 12 7 6 16 20 17 16 12 8 9 6 2 4 7 7 8 8 5 6 10 10 10 12 12 11 11 10 11 9 6 6 8 8 6 5 5 4
25 24 24 24 24 24 24 26 26 25 21 15 10 6 2 3 3 1 2 3 3 4 4 3 4 5 7 7 8 6 4 4 4 3 2 2 2 3 4 4 2 3 6 9 12 9 5 6 6 8 11 5 4 17 24 19 16 12 8 8 7 4 6 7 7 8 8 7 8 10 11 10 9 9 12 12 12 13 11 7 5 7 11 11 9 6 4
25 25 24 24 24 24 24 25 27 26 22 15 7 4 3 3 2 2 3 4 4 4 3 4 5 6 8 9 7 6 2 4 3 4 3 1 1 0 3 2 2 5 6 8 10 7 4 5 5 7 9 5 4 16 24 20 16 13 9 9 8 5 6 7 7 8 9 9 8 8 10 9 8 9 13 14 15 15 11 7 6 7 10 12 10 7 4
25 25 25 24 25 24 24 25 27 26 22 14 7 5 4 3 1 1 2 3 3 4 4 4 4 5 7 6 6 9 7 2 0 3 2 1 1 1 1 1 4 9 9 9 10 8 6 6 7 9 8 5 6 14 20 20 17 11 8 9 8 4 5 8 8 6 6 8 7 6 8 10 10 12 14 15 15 15 12 8 8 7 7 9 11 8 5
24 25 25 25 25 25 25 26 28 26 20 13 8 5 3 2 1 2 2 2 2 3 3 2 3 5 6 4 5 8 9 7 2 0 1 2 2 1 2 3 7 12 12 10 9 9 9 8 9 10 8 7 9 11 14 17 15 11 8 10 8 4 6 9 8 3 1 1 4 6 8 12 13 14 15 14 15 16 14 11 9 8 7 8 10 10 8
24 25 25 25 25 25 25 26 27 26 19 12 7 3 2 2 1 1 3 3 4 4 5 6 7 6 4 2 5 8 10 10 6 3 3 3 2 1 3 5 6 10 11 8 8 9 9 9 9 9 8 10 11 10 10 12 11 11 11 12 8 5 6 9 9 4 2 4 5 4 6 10 12 14 15 15 16 18 17 14 13 10 8 6 8 12 12
25 25 25 24 24 24 25 25 26 25 19 11 7 3 2 3 2 3 4 4 6 7 8 9 8 5 3 1 4 8 10 10 7 4 3 3 5 4 4 8 6 7 8 8 8 7 6 7 7 7 9 11 11 10 9 8 8 11 13 10 7 6 5 7 9 7 4 2 3 2 3 6 8 12 15 16 17 18 17 16 16 14 11 8 7 12 13
25 25 25 24 24 23 24 24 25 25 19 10 6 4 2 3 3 4 5 5 6 7 7 7 5 4 5 4 5 7 8 9 7 4 5 6 6 6 8 9 6 7 7 7 7 5 4 4 6 7 9 9 9 8 8 8 10 13 12 8 6 6 3 6 8 7 6 5 2 2 4 4 7 10 13 15 16 17 17 16 16 14 13 11 8 11 10
24 24 24 24 24 23 23 23 24 25 20 11 5 3 2 3 4 5 5 5 5 6 6 6 5 5 5 6 6 7 8 9 7 4 6 7 5 6 9 8 5 8 9 8 8 6 6 4 3 3 4 4 5 5 6 10 12 11 9 8 7 6 3 5 7 7 7 7 5 4 4 5 8 11 12 14 14 14 14 13 13 13 14 12 10 10 8
23 24 24 23 23 23 22 22 22 22 20 14 6 3 3 4 4 4 4 4 4 6 6 6 5 4 5 7 8 7 8 9 7 4 4 4 3 5 8 7 3 7 9 8 7 6 5 3 3 2 1 2 3 2 5 12 13 10 9 7 7 8 5 4 7 7 6 6 5 4 4 7 8 7 7 9 12 11 10 8 10 13 13 11 10 11 8
23 23 23 23 23 23 22 22 21 21 20 16 10 7 7 6 4 3 3 3 4 6 6 6 6 5 9 10 9 7 7 7 7 5 3 4 5 6 7 6 3 5 6 7 7 7 4 1 0 1 2 3 4 3 4 11 12 11 10 8 7 10 8 5 6 6 6 7 5 3 7 7 4 1 2 2 6 11 12 10 11 14 12 6 5 6 7
23 23 23 23 23 23 22 22 21 20 20 18 13 10 9 8 6 3 2 3 5 6 5 5 6 8 10 11 9 8 7 6 6 5 3 4 6 5 5 6 5 4 4 8 6 2 3 5 5 5 5 5 7 6 6 9 8 8 10 9 9 10 9 6 5 5 5 6 6 7 9 4 2 3 2 2 1 5 9 9 10 14 12 7 6 6 10
23 23 23 23 23 22 22 22 21 20 20 18 15 11 10 8 5 3 2 3 5 6 5 6 8 8 9 9 9 8 6 6 5 3 2 3 4 4 4 5 6 3 4 8 6 3 8 9 8 8 7 7 8 8 7 7 6 7 9 9 9 10 9 6 5 5 4 5 7 8 3 2 4 3 2 2 1 3 7 6 9 13 13 13 12 10 9
23 23 23 23 23 22 22 22 21 21 21 19 15 12 10 8 4 3 3 3 4 5 5 6 7 10 10 9 9 7 5 6 4 3 3 2 3 4 3 3 4 1 4 7 4 5 7 7 7 7 7 7 6 6 6 6 4 5 8 8 8 9 9 7 5 5 4 5 8 6 1 2 5 3 4 6 4 6 7 6 8 14 14 13 12 9 9
22 23 23 23 23 22 22 22 21 21 22 20 15 11 9 8 6 4 3 3 5 4 3 4 7 10 11 10 9 7 6 6 4 2 2 1 1 2 2 2 1 1 4 4 2 5 5 5 7 8 7 7 6 6 5 5 4 3 5 7 7 8 8 8 7 5 5 6 8 7 6 7 5 4 7 8 3 3 5 4 5 12 15 14 13 11 12
22 22 22 22 22 22 22 22 22 21 22 21 16 10 9 8 6 5 4 3 3 3 5 6 6 8 8 7 7 6 5 5 4 1 3 4 4 5 3 2 1 2 3 3 2 3 3 5 7 7 6 6 6 6 5 5 5 4 3 6 8 9 8 7 7 6 6 8 8 8 8 6 4 5 7 8 5 3 5 6 5 10 15 16 15 14 14
22 22 22 22 22 22 22 22 22 21 21 21 17 11 9 8 8 6 4 3 3 5 4 5 6 6 6 6 5 5 4 3 3 2 2 4 5 4 4 1 2 1 3 3 1 2 3 5 6 7 4 2 2 5 5 6 5 5 5 7 9 9 7 6 8 7 7 8 8 7 6 2 4 6 6 7 5 2 5 7 3 5 10 15 16 16 16
21 21 22 22 22 22 22 21 22 21 20 21 18 11 7 7 8 7 4 3 4 4 3 4 6 6 5 6 5 5 4 3 2 1 0 2 3 4 2 0 2 1 2 2 1 2 3 3 3 4 4 2 1 2 4 5 5 5 7 7 8 8 7 7 9 8 8 9 8 7 5 3 6 6 7 8 6 3 6 5 1 3 7 11 12 14 16
21 21 21 21 21 22 21 21 21 21 21 21 18 11 7 7 8 8 6 4 3 4 6 7 7 6 4 5 6 4 3 2 2 3 1 2 3 4 2 1 0 0 1 1 0 1 3 3 1 1 3 3 1 1 2 3 3 3 7 7 7 7 7 7 8 8 8 8 7 8 5 3 6 7 7 5 4 3 3 1 1 2 8 9 9 11 13
21 21 21 21 21 21 21 20 20 20 20 21 18 13 10 8 6 7 6 3 4 7 8 6 5 6 5 4 4 4 3 2 1 2 3 3 3 4 3 2 1 0 0 0 1 0 1 2 2 0 1 3 2 1 1 2 1 1 3 4 4 5 6 7 7 7 6 6 8 8 5 3 10 11 7 3 4 1 1 1 0 2 8 10 8 9 11
20 21 21 21 21 21 21 20 20 20 20 20 18 14 11 7 6 7 6 5 5 4 3 3 6 11 11 9 8 9 8 6 4 4 4 3 3 3 1 2 2 1 1 1 1 0 1 1 2 0 0 2 1 1 1 2 3 1 1 2 2 3 5 5 5 6 6 7 7 4 1 4 11 9 3 1 0 4 4 1 1 3 7 9 8 8 10
20 20 21 21 21 21 21 20 20 20 20 20 19 14 11 10 9 9 8 7 7 8 10 14 16 18 18 15 13 14 14 13 10 7 5 3 2 2 1 1 3 2 2 2 1 1 0 0 1 1 1 1 1 2 1 2 3 3 1 2 2 1 1 2 2 3 4 4 1 2 3 3 6 2 4 3 2 4 4 3 1 2 5 7 7 9 11
21 20 21 21 21 21 21 20 20 20 20 20 19 15 14 14 12 10 9 8 9 12 16 17 15 14 13 10 9 10 12 13 13 11 8 4 1 1 0 2 3 3 2 0 2 2 1 1 1 1 0 0 1 2 3 3 2 2 2 3 1 2 2 1 2 1 2 2 1 1 1 3 5 2 3 3 2 3 3 3 1 2 3 4 6 8 11
21 21 21 21 21 21 21 20 21 20 20 20 18 15 16 15 12 11 9 6 5 6 8 8 5 4 6 7 5 5 8 10 11 12 11 8 3 1 2 3 2 2 3 4 3 3 3 1 1 2 0 0 2 2 3 4 2 0 2 3 3 2 2 3 3 1 2 2 3 2 0 2 4 4 2 1 1 1 2 3 1 2 3 4 5 8 10
21 21 21 21 21 21 21 21 21 20 20 21 19 16 15 13 9 8 7 5 4 4 4 3 2 4 8 10 6 2 4 6 7 9 12 12 9 5 1 3 1 1 1 2 3 4 3 2 2 2 1 0 2 2 2 1 0 0 2 3 2 3 3 4 4 4 4 2 2 3 1 2 4 6 4 2 2 2 1 2 2 1 4 5 6 7 10
22 21 21 22 21 21 22 22 22 21 21 22 20 16 14 13 10 7 6 5 4 3 3 5 4 5 10 10 6 4 6 5 6 9 11 14 14 10 5 2 2 1 1 2 3 3 4 2 2 3 1 1 1 2 1 1 0 1 3 1 3 3 3 3 2 4 6 4 2 3 3 4 5 7 6 4 2 2 2 2 2 3 6 7 7 9 10
22 22 22 22 22 22 22 22 22 22 23 22 20 17 15 14 11 9 8 5 4 3 4 5 6 9 13 10 6 7 7 4 4 7 9 11 12 11 8 6 4 3 3 3 2 2 4 3 2 2 1 1 1 2 1 1 1 3 4 1 3 3 4 2 3 6 6 2 1 0 2 2 3 4 7 6 4 3 4 5 5 6 7 8 9 10 10
22 22 22 22 22 22 22 22 22 23 23 23 21 18 14 11 8 8 9 6 4 4 4 6 8 10 11 7 6 8 7 5 5 5 7 7 9 9 8 6 5 4 3 3 2 2 3 2 1 0 1 0 1 2 1 1 2 4 3 3 3 3 2 1 3 4 1 3 5 3 3 1 3 3 3 5 4 4 4 5 5 6 7 8 9 11 11
23 23 23 22 22 22 22 22 22 23 23 22 19 15 7 4 3 4 7 5 3 4 5 6 7 6 6 7 8 8 6 6 6 3 3 3 6 7 6 5 5 3 2 2 3 3 2 0 1 1 1 1 2 2 2 2 3 2 1 3 2 1 2 2 4 3 1 3 5 4 3 2 4 2 1 2 3 3 4 3 3 5 6 8 9 10 11
23 23 23 23 23 23 22 22 22 22 21 18 14 8 4 4 2 2 6 4 2 5 5 5 5 4 5 6 6 6 7 7 4 1 1 1 3 4 3 3 3 2 3 3 3 2 1 1 1 1 1 1 2 2 2 2 2 1 4 3 3 2 2 2 3 3 2 3 4 3 3 3 3 2 1 2 1 1 1 1 2 3 5 7 8 9 10
23 24 24 24 24 24 24 23 22 21 18 13 8 4 2 1 3 3 5 2 3 5 4 4 5 5 4 3 3 5 8 7 3 0 0 1 1 1 1 1 1 1 3 2 1 1 1 1 1 2 2 1 2 3 2 3 3 2 5 3 2 2 2 1 1 1 2 2 1 1 1 1 1 1 2 3 2 1 0 1 1 2 3 5 8 8 9
24 25 25 25 25 26 25 24 22 20 15 11 10 9 7 3 2 5 4 2 5 5 4 4 5 4 3 2 2 5 6 3 1 2 2 2 1 2 2 1 1 1 1 2 1 1 0 1 1 2 2 2 1 3 3 4 3 2 5 3 2 2 1 1 2 2 1 1 2 2 1 2 2 0 2 3 3 1 1 1 2 3 4 5 7 8 9
25 26 26 27 28 27 25 24 23 21 17 16 18 19 17 13 10 12 10 5 7 5 3 4 4 3 3 4 3 2 3 2 2 2 2 1 0 1 2 2 2 1 0 1 0 1 0 1 1 1 2 2 2 3 4 3 0 4 4 3 3 3 2 2 3 3 3 2 1 3 3 1 2 2 2 3 3 2 2 3 3 4 6 7 7 8 10
26 27 27 28 28 27 25 24 21 17 12 11 11 10 7 3 4 11 15 9 5 4 3 3 4 3 4 5 1 2 3 3 1 0 1 2 0 1 1 2 3 2 0 0 1 1 1 1 1 0 2 2 2 3 5 2 3 5 4 4 4 3 3 4 3 3 3 1 2 3 3 1 4 4 3 3 3 3 3 4 5 6 7 7 8 9 10
27 28 29 30 28 25 21 16 11 7 7 7 4 4 7 5 4 3 12 10 5 3 3 2 3 3 5 5 1 2 3 3 1 2 2 1 1 1 1 1 2 1 1 1 1 2 1 1 1 2 2 2 3 4 4 2 5 6 5 5 6 5 5 4 4 4 3 0 1 0 2 3 4 4 4 4 3 3 4 4 6 7 7 7 9 10 10
27 29 30 29 22 15 10 5 4 4 4 2 1 3 8 5 4 2 7 8 6 5 2 2 3 4 5 4 2 3 3 2 1 0 1 1 0 0 2 2 1 2 0 1 2 1 1 1 2 3 2 2 4 3 2 2 3 6 7 6 6 5 3 3 5 6 4 2 2 3 3 4 4 4 3 3 3 3 4 5 6 8 8 8 9 10 9
28 28 27 21 11 5 4 3 3 2 3 5 5 4 6 6 4 2 5 6 6 5 3 4 4 4 4 4 2 2 2 2 1 0 1 1 0 1 2 2 1 1 1 2 1 1 1 0 3 4 3 2 3 2 2 2 1 4 5 6 6 4 2 3 6 7 6 4 4 3 3 3 3 3 2 3 3 4 5 6 7 8 8 9 10 10 10
26 23 18 11 5 3 3 3 1 6 10 10 6 3 3 4 4 4 4 4 5 5 4 4 5 5 4 3 3 1 1 2 3 1 0 0 0 1 1 1 1 0 2 2 2 1 1 2 2 3 3 2 2 1 0 1 0 1 3 5 5 4 3 5 8 8 5 4 3 4 4 4 4 3 3 3 3 4 5 5 6 7 7 9 9 10 10
19 14 8 5 4 2 1 3 9 13 11 5 3 3 3 3 4 3 3 3 3 3 4 5 6 5 5 6 5 2 1 3 4 2 0 1 0 0 0 0 1 1 3 1 3 0 3 2 1 2 2 1 1 1 1 1 2 2 3 5 5 4 4 6 7 5 1 1 1 4 4 3 4 4 4 3 3 4 4 5 6 7 8 9 10 11 11
12 9 5 3 3 5 8 12 14 11 4 3 4 3 3 4 3 2 3 4 3 3 3 3 4 4 4 6 5 2 2 2 3 2 1 1 1 0 1 0 1 2 3 1 2 1 2 1 1 2 1 3 3 3 2 2 4 4 4 5 5 4 5 6 5 1 2 3 0 3 2 1 2 4 5 4 4 4 5 5 7 8 9 10 11 11 12
10 8 6 6 9 12 14 14 10 4 2 3 3 3 3 3 3 2 2 4 5 3 3 3 4 4 4 5 4 2 2 1 1 2 2 0 1 1 2 0 1 2 2 1 2 1 3 2 2 1 3 4 3 2 2 3 5 5 5 5 5 4 5 5 3 1 1 1 1 2 2 1 2 3 5 5 5 4 5 6 7 8 9 10 11 11 12
13 13 13 14 15 14 12 7 3 3 3 2 2 3 3 3 3 3 3 4 3 2 3 3 3 2 1 2 3 3 1 1 1 3 2 1 1 1 1 0 1 2 1 2 1 2 2 2 1 2 4 4 2 2 3 4 5 6 6 6 4 4 5 5 3 2 1 2 2 2 3 3 3 3 5 6 5 5 5 7 7 8 9 10 11 12 13
17 15 12 10 9 6 4 3 2 3 2 2 2 3 3 3 3 4 3 2 1 1 2 2 2 1 1 1 2 2 0 0 1 3 2 0 1 1 1 1 2 1 1 1 2 3 2 1 1 3 4 3 1 2 4 4 5 6 6 5 4 4 5 4 3 2 0 1 1 1 2 3 3 4 6 7 6 5 6 7 8 9 10 10 11 12 14
13 8 5 3 3 3 3 2 2 3 3 3 3 4 4 5 5 4 3 3 2 2 2 1 2 3 2 2 1 2 1 1 2 2 1 1 1 2 2 1 0 0 0 1 2 2 1 1 1 2 4 2 1 4 4 5 5 6 6 5 4 5 5 4 3 2 1 1 1 2 2 3 4 5 6 7 6 6 7 7 8 9 10 10 11 12 13
7 3 3 2 2 2 2 1 2 3 4 4 4 4 5 5 6 5 2 1 1 1 2 1 1 2 1 1 1 2 1 2 2 2 1 2 2 2 1 1 1 0 2 2 2 1 1 0 0 2 4 3 2 5 6 5 5 6 7 7 6 6 6 5 4 4 3 2 3 3 3 3 4 5 6 6 7 7 7 8 9 10 10 10 10 11 13
4 1 2 2 2 2 2 2 3 4 4 3 3 3 3 2 2 2 2 1 0 0 1 0 1 2 2 1 1 1 1 2 3 1 1 2 2 1 1 1 1 2 2 2 2 1 0 1 2 3 4 3 2 5 6 6 6 6 7 7 7 6 6 5 5 4 3 3 3 4 4 3 5 6 7 7 7 7 7 9 10 10 11 11 11 12 13
2 1 2 2 2 2 3 3 2 1 1 0 1 1 1 1 2 3 2 1 1 1 1 1 1 2 1 1 1 2 2 2 2 1 1 2 2 1 1 2 2 2 2 2 2 1 1 2 2 3 3 2 3 6 6 6 7 7 7 7 7 6 6 6 5 5 4 4 4 5 4 4 6 7 8 8 8 7 8 9 11 11 11 11 12 13 14
2 1 2 2 2 2 3 2 1 1 1 0 1 1 1 0 1 2 2 2 2 2 2 2 2 2 2 2 2 2 2 2 2 2 1 1 1 2 2 2 2 2 2 3 1 1 1 2 3 3 2 0 4 6 6 7 8 8 8 7 7 7 7 6 6 6 5 5 5 5 5 5 6 7 7 8 8 8 8 10 11 11 10 11 12 14 15
3 2 2 2 3 3 2 2 2 2 3 1 1 1 1 2 2 3 2 2 2 2 1 1 2 2 2 2 2 3 3 3 3 2 2 2 3 2 2 2 2 2 3 2 1 1 1 2 2 2 1 1 4 6 6 7 8 8 8 7 7 6 6 7 7 6 6 6 6 6 6 6 6 6 7 8 8 8 8 10 10 10 10 11 12 13 14
3 3 2 2 3 3 2 3 4 4 4 3 2 2 1 0 2 3 3 3 2 1 1 2 2 2 1 1 2 3 3 3 3 3 4 4 3 2 2 3 3 2 2 1 0 1 1 2 2 1 0 2 4 6 7 7 7 8 7 7 6 7 7 8 8 7 7 7 7 6 6 6 6 6 6 6 7 8 9 9 10 10 10 11 11 12 13
2 3 3 3 4 3 2 2 3 4 4 3 2 1 1 1 1 3 4 4 3 3 3 2 1 2 3 3 3 2 2 2 3 4 4 3 3 3 4 4 3 1 1 1 0 1 1 2 2 2 0 1 4 6 6 7 7 8 7 7 7 7 8 9 8 8 8 8 7 7 6 6 6 6 5 6 7 8 8 8 9 9 9 10 11 12 12
3 3 3 3 4 4 3 3 3 2 2 1 1 1 1 1 2 4 4 4 3 2 1 0 1 3 4 3 1 1 1 2 3 4 4 3 3 3 4 3 1 1 1 1 0 0 1 1 2 1 1 1 3 5 6 7 7 8 8 8 8 8 8 8 8 9 9 8 8 8 7 5 5 6 6 6 7 7 6 6 8 9 9 9 10 11 11
Wind_Direction
354 355 355 355 355 353 352 353 353 353 353 352 336 317 287 293 330 96 156 212 241 277 283 253 247 261 273 290 281 271 270 272 283 276 204 213 213 199 172 162 159 151 151 149 152 152 148 161 168 162 167 165 149 168 178 178 174 180 185 165 151 193 202 174 161 175 186 163 176 210 223 216 209 208 210 209 203 202 213 216 189 193 203 192 204 215 153
354 355 354 355 355 355 355 354 354 354 353 347 327 310 305 295 290 230 189 208 238 278 291 287 288 291 294 296 291 284 264 257 285 302 244 220 200 161 134 129 129 139 152 151 149 147 145 160 164 165 170 155 130 173 179 179 179 186 184 168 162 182 197 184 166 170 182 184 190 203 210 215 217 210 208 213 206 199 210 220 191 195 204 199 210 216 155
354 354 354 355 356 357 358 357 357 356 353 349 325 295 307 292 256 233 229 222 238 267 289 291 287 300 309 311 325 345 312 226 281 319 296 269 298 159 113 98 122 144 152 143 140 146 145 146 151 160 161 123 130 183 181 179 185 186 180 174 171 187 200 193 187 181 185 196 198 197 196 200 214 214 208 210 209 201 202 204 197 206 204 200 214 216 139
354 354 354 356 357 359 0 1 1 358 355 353 329 292 301 310 290 272 250 224 236 257 262 265 272 305 324 328 344 1 14 52 266 301 309 36 341 334 101 129 147 150 152 141 140 148 139 133 148 154 146 115 143 176 178 184 187 169 158 175 177 191 205 205 216 210 199 206 196 179 186 190 200 208 208 210 210 206 206 206 209 214 207 207 217 209 157
355 354 355 356 357 359 1 3 4 1 358 358 339 289 273 308 315 328 312 269 260 268 263 271 289 306 322 335 338 352 14 31 51 266 324 327 316 358 101 142 153 156 158 147 139 148 142 129 136 144 133 116 135 157 176 189 177 138 149 188 188 194 196 204 227 242 92 127 127 145 188 198 198 202 205 208 209 210 213 215 217 213 209 211 202 193 184
355 355 355 357 357 359 2 4 5 3 2 7 355 304 290 328 310 344 343 310 306 320 318 313 314 314 309 303 327 356 21 23 17 351 297 288 315 17 116 125 142 158 162 151 141 150 149 132 126 133 128 128 139 151 174 186 164 147 178 193 192 211 193 192 215 214 84 58 78 119 196 208 207 208 208 207 209 213 214 216 220 215 215 212 176 183 204
356 355 355 357 358 1 3 4 5 5 6 16 17 353 339 335 318 342 351 314 300 309 314 314 321 337 342 317 346 8 22 21 12 340 321 32 26 9 90 111 123 151 163 165 154 145 145 139 135 133 129 136 148 155 167 182 175 178 188 183 192 224 190 174 205 214 185 124 86 114 202 212 217 220 218 213 212 213 213 215 219 215 219 223 181 187 208
356 355 355 358 360 1 4 4 5 6 8 21 38 33 8 345 326 327 330 316 307 317 327 324 329 2 15 15 10 11 17 21 25 14 16 42 32 17 61 86 104 130 145 154 135 84 50 113 140 142 134 140 155 159 165 175 179 188 189 171 186 216 173 161 201 220 201 179 170 217 227 231 230 227 224 222 218 215 212 214 217 212 216 223 208 201 208
357 356 355 359 360 1 4 4 5 8 10 15 22 21 357 315 296 307 321 324 329 340 348 342 344 10 18 11 3 2 9 16 24 36 36 43 40 23 32 45 89 118 113 100 82 41 11 39 86 118 126 135 148 152 164 167 170 186 188 171 180 203 191 170 200 223 209 189 197 221 233 249 245 236 227 221 221 220 217 214 209 206 212 214 212 218 213
357 356 356 359 359 1 3 3 4 8 11 11 357 335 335 311 289 303 314 308 333 347 348 355 9 12 356 353 354 356 1 5 11 33 51 52 39 4 358 1 66 106 83 55 31 353 336 358 23 26 39 95 120 112 165 169 170 179 181 176 185 196 203 191 197 216 209 180 184 216 232 242 241 237 233 224 217 213 209 203 196 204 215 211 210 226 212
357 356 356 358 359 359 360 1 3 5 7 6 349 329 338 334 314 315 315 309 344 348 347 8 20 358 340 344 349 350 355 3 10 22 40 32 14 355 347 355 44 85 50 9 336 319 312 303 323 108 89 101 127 132 161 169 173 178 179 181 186 193 207 206 192 211 206 172 161 210 231 234 225 111 7 286 216 200 199 200 197 204 215 217 223 226 177
355 355 356 357 357 358 359 360 2 3 3 359 344 332 339 336 317 306 315 320 337 348 357 2 354 340 338 345 348 349 356 5 4 0 357 359 0 357 357 10 33 50 360 332 319 282 158 149 149 147 127 108 117 130 148 162 172 180 184 186 183 188 205 207 193 214 208 168 173 217 229 227 95 78 60 31 354 211 208 208 203 201 204 205 215 208 171
353 354 354 355 356 358 358 358 358 360 1 358 349 340 339 334 315 302 317 312 326 345 342 322 329 345 355 358 354 350 358 7 4 7 7 350 359 15 25 28 34 32 323 321 314 193 154 144 145 148 144 133 122 118 125 143 167 190 197 198 190 187 196 201 203 215 203 179 200 220 230 115 114 106 126 135 115 186 191 204 208 202 202 205 208 208 189
351 352 353 354 355 356 357 357 357 358 360 358 352 344 344 344 327 311 322 318 320 329 316 307 332 351 357 1 1 356 4 13 20 50 53 9 357 23 39 44 44 22 295 307 280 184 151 143 152 153 157 162 152 134 122 112 130 191 207 211 205 198 195 191 199 212 216 214 211 211 251 185 181 171 176 179 171 171 186 220 216 199 199 203 200 192 176
350 351 351 352 354 355 355 356 356 357 359 359 353 345 350 352 332 308 310 312 308 316 342 344 337 336 342 358 6 2 9 19 16 51 89 79 54 55 35 12 64 197 269 283 200 160 146 153 160 159 169 179 171 161 155 130 105 151 206 215 215 214 209 200 197 200 214 232 223 213 228 233 211 157 159 172 177 183 203 246 221 188 188 193 190 179 167
348 349 350 350 352 353 354 355 356 357 358 359 356 347 347 354 344 320 302 294 300 325 3 359 331 318 328 345 360 2 9 14 0 351 122 97 84 89 67 19 110 181 273 281 172 158 170 167 162 161 167 169 161 155 162 164 136 112 159 196 205 213 218 216 212 200 200 225 231 222 229 232 187 139 146 166 186 197 210 234 217 177 179 184 184 178 171
346 348 349 349 349 351 352 353 355 357 357 358 354 341 338 351 354 335 304 281 293 295 313 335 325 319 335 347 2 10 5 8 1 347 83 63 57 88 99 99 142 150 305 294 179 165 170 163 168 169 143 102 160 164 160 172 158 127 144 176 191 200 206 214 221 214 203 216 231 232 230 196 120 126 135 151 167 189 216 220 202 157 178 185 182 177 173
344 345 346 347 347 348 349 351 353 354 356 356 349 335 325 340 351 345 314 291 299 290 295 333 322 313 334 343 342 350 350 358 10 344 70 81 45 46 50 28 153 131 314 298 183 152 157 153 171 170 136 79 281 199 160 175 174 152 156 169 181 189 194 206 217 219 208 212 230 239 221 114 99 126 134 136 149 205 228 217 116 123 181 188 187 181 172
342 343 344 345 345 346 346 347 350 352 353 354 351 340 325 329 342 345 327 301 293 294 306 318 306 283 285 309 309 313 324 327 332 323 328 105 49 355 324 265 176 94 320 297 257 146 166 161 147 204 163 155 201 255 154 174 186 158 161 170 180 186 191 201 213 221 217 213 228 239 229 127 111 128 130 145 182 217 233 218 55 152 167 172 190 188 174
338 339 341 342 342 344 344 344 347 349 350 353 351 337 320 318 330 336 327 307 294 294 294 296 291 285 284 277 267 269 286 304 2 355 5 51 19 305 237 160 115 316 320 266 222 227 195 157 130 243 191 143 142 260 164 152 178 173 176 189 190 185 194 203 206 213 223 218 218 233 243 164 147 143 140 197 229 283 40 135 144 175 157 160 181 185 175
335 336 338 339 339 340 341 341 343 345 347 350 348 333 317 318 328 325 310 290 284 291 302 328 316 300 289 278 259 249 255 273 310 343 345 7 4 319 272 89 41 4 14 335 261 184 3 76 116 145 257 107 151 224 174 158 167 128 349 285 220 183 209 226 209 198 219 225 214 229 334 146 159 153 136 199 59 16 347 301 128 158 159 159 171 174 174
332 333 334 336 336 337 338 338 339 341 342 346 346 333 314 312 321 320 306 282 260 254 272 294 297 286 277 273 264 249 246 256 272 293 304 310 344 327 293 56 55 51 21 336 283 152 102 42 135 169 152 132 179 181 184 230 184 139 137 239 238 86 13 294 246 201 238 260 245 27 27 144 160 112 28 28 38 13 337 322 50 148 165 162 162 164 169
328 329 331 333 333 334 334 335 335 337 339 342 343 331 312 309 314 316 307 282 263 262 265 272 279 276 270 270 266 252 244 247 253 253 254 263 313 352 342 63 79 92 95 267 273 298 320 356 352 321 174 104 259 196 199 230 216 148 165 205 215 45 48 299 279 285 285 274 141 64 10 174 172 133 48 26 1 5 343 321 357 139 164 159 152 157 165
326 327 328 329 330 331 332 332 332 333 335 337 336 322 305 301 305 312 307 280 273 289 269 249 258 308 323 324 310 253 230 237 244 238 230 230 249 315 69 78 79 110 143 180 232 282 295 302 320 297 258 7 293 251 221 217 207 205 230 200 168 139 168 236 261 262 241 222 141 107 54 193 190 187 149 97 273 326 332 317 346 106 147 144 135 151 161
324 324 325 327 328 329 329 328 328 330 331 332 331 321 304 295 297 306 304 285 289 319 312 289 317 355 340 331 325 263 247 256 247 226 214 215 230 257 34 74 54 35 105 190 237 257 254 241 250 256 219 144 273 273 250 227 176 355 262 242 154 139 187 236 244 230 235 250 91 104 178 218 207 207 194 161 169 174 269 300 327 116 146 138 135 151 158
322 322 322 324 326 326 326 326 326 327 328 329 327 316 297 289 286 275 269 280 282 265 287 309 324 340 335 332 336 335 311 280 235 220 216 216 226 244 265 265 249 261 255 254 261 258 254 259 263 260 249 114 267 289 329 311 323 269 266 308 82 130 200 229 237 236 243 244 172 166 200 203 200 208 208 192 176 177 188 207 206 168 154 148 153 164 167
320 320 320 322 323 324 324 324 324 325 327 328 324 310 291 285 277 246 232 267 300 278 288 311 319 325 326 323 320 328 327 305 247 229 223 221 225 232 242 250 255 260 251 235 231 248 248 241 245 268 353 68 257 285 332 347 305 263 252 167 130 196 228 212 222 243 244 232 95 148 244 215 159 187 205 203 201 207 193 185 185 177 166 162 164 170 177
319 318 318 319 320 321 321 322 322 324 328 328 322 310 293 278 264 229 217 243 299 310 305 303 301 307 312 308 314 327 332 327 309 258 223 218 217 216 225 235 238 250 256 240 232 231 229 230 229 102 73 61 229 221 212 239 253 260 248 166 170 237 272 250 252 262 274 39 27 359 293 315 74 102 191 192 193 215 213 196 187 178 173 172 170 170 176
317 316 316 317 317 317 319 320 320 324 329 330 324 313 289 240 234 218 203 212 271 296 298 294 289 297 311 315 317 324 333 334 326 291 236 216 202 206 220 227 228 243 258 255 264 255 219 330 16 64 77 325 278 209 191 220 231 234 109 130 163 258 330 309 299 311 47 31 6 349 320 359 53 74 160 165 174 221 225 205 191 181 177 179 180 177 177
314 315 315 314 314 314 316 316 318 324 329 328 321 303 242 187 177 194 183 185 283 302 302 305 303 314 327 313 305 323 344 348 342 292 242 234 195 197 207 202 208 236 239 238 267 278 210 127 87 95 71 4 294 252 222 243 245 131 109 137 181 201 220 261 295 306 334 9 5 345 343 22 55 87 125 127 139 232 230 202 197 189 182 183 184 184 181
313 313 312 311 312 313 312 312 316 321 321 317 309 291 253 141 104 139 156 146 322 301 286 286 288 296 304 278 279 328 342 344 348 98 219 249 196 174 187 193 175 217 248 250 232 218 235 120 143 160 118 76 296 278 259 263 266 138 128 148 184 201 213 216 240 287 318 14 31 257 345 52 106 164 135 133 137 135 174 201 195 187 191 192 188 186 185
312 312 311 310 310 309 308 310 313 313 304 281 261 260 271 281 154 168 174 340 325 296 280 293 294 300 317 307 307 327 326 314 249 196 195 202 199 174 176 206 73 87 308 302 170 156 34 38 169 188 135 117 277 272 255 263 273 121 126 142 156 164 191 178 154 169 170 166 194 212 199 187 211 277 80 118 131 129 150 182 177 178 188 194 189 183 183
311 310 309 309 308 307 308 308 307 301 287 269 261 263 270 272 251 225 224 273 306 282 264 295 293 290 313 315 322 340 322 288 225 194 167 137 266 215 175 166 153 124 61 315 257 106 56 221 204 163 130 155 248 267 264 267 119 109 126 145 145 138 140 141 149 156 156 168 246 292 312 326 121 96 89 118 127 129 141 152 162 172 182 189 188 182 183
311 310 309 308 308 307 307 305 302 293 271 254 258 262 259 274 254 219 212 223 270 263 238 279 287 289 304 297 275 53 355 328 308 339 56 84 104 264 210 172 182 185 104 325 183 158 162 206 269 220 165 175 227 263 264 243 130 129 147 154 143 143 148 150 157 162 155 160 307 310 318 49 113 123 131 129 124 128 145 158 168 172 177 187 188 185 186
311 310 308 308 308 309 307 302 292 266 227 216 228 211 177 131 62 183 195 201 240 254 217 237 261 288 308 300 278 52 357 327 329 352 357 64 92 311 293 211 185 163 31 353 230 196 149 72 319 260 186 173 217 245 257 222 144 155 170 164 157 164 167 163 166 163 149 78 353 68 149 152 145 142 141 136 136 146 155 167 179 179 182 191 190 185 186
311 310 309 310 311 309 302 283 235 211 206 207 262 208 202 217 332 320 202 213 247 267 274 278 260 272 299 304 324 359 332 300 302 347 256 226 124 202 266 260 172 98 31 259 233 197 88 59 285 255 208 219 248 259 328 8 170 177 179 170 166 170 170 159 159 154 136 107 99 115 138 158 152 138 139 143 146 161 170 177 186 190 193 193 187 185 186
313 312 312 316 313 276 236 186 161 192 285 304 303 265 232 244 275 247 197 212 225 228 254 282 267 266 287 295 301 325 320 312 336 22 208 257 38 114 265 282 44 99 218 216 160 46 55 175 270 270 252 262 288 336 34 1 239 183 173 167 162 163 155 139 146 146 134 121 126 135 146 157 147 140 155 158 155 176 192 193 194 197 195 187 184 185 184
316 315 314 312 294 242 190 148 206 297 306 305 293 255 211 215 221 204 191 195 194 194 218 255 255 254 262 260 258 277 332 323 314 310 122 323 278 175 225 281 55 316 250 179 95 28 254 201 240 275 268 276 303 319 187 249 264 127 156 162 155 158 162 154 157 163 158 147 157 166 169 176 176 175 179 174 173 192 205 199 193 195 191 184 181 177 170
320 318 309 293 290 310 26 329 311 311 313 299 239 208 188 192 209 206 183 175 183 188 201 227 242 243 240 243 249 231 190 280 283 275 118 24 38 122 258 161 117 263 266 157 106 260 253 207 203 254 260 273 34 77 117 184 174 146 150 155 151 156 167 166 169 176 159 25 178 178 181 206 211 194 184 182 186 197 201 193 189 190 186 181 177 171 164
326 323 314 306 323 334 329 321 318 318 309 197 200 219 209 196 203 201 175 182 201 200 190 215 240 240 238 254 264 222 168 243 287 311 339 12 54 336 290 348 114 263 275 86 98 254 275 290 241 251 319 15 40 67 89 168 167 149 144 153 155 161 172 172 171 154 19 12 38 170 173 255 246 207 195 192 192 195 195 191 189 188 180 173 170 166 160
331 328 319 312 311 310 312 314 312 294 228 204 201 206 205 199 200 208 206 209 212 199 179 211 234 216 205 230 250 229 177 186 309 304 291 309 104 272 283 70 115 265 274 81 87 266 271 278 269 289 9 20 27 69 125 150 145 139 147 155 153 159 173 173 168 160 337 317 242 197 188 205 220 209 201 197 197 198 193 187 186 183 176 167 161 156 150
309 304 297 296 298 297 296 294 264 209 213 223 204 203 210 200 187 199 217 227 231 197 171 205 244 249 176 199 237 243 206 102 235 250 249 188 131 281 297 117 196 258 309 70 74 261 251 242 281 5 33 33 39 117 148 150 144 143 149 150 150 167 180 178 177 197 275 295 273 223 201 203 211 206 198 194 194 193 186 181 177 173 168 162 155 149 145
303 296 286 285 288 280 263 239 202 195 207 207 194 197 200 193 197 206 207 206 220 206 172 179 232 251 204 204 230 230 140 83 254 253 255 96 130 231 250 233 233 269 25 73 241 254 262 269 318 14 27 30 77 158 157 147 138 140 146 147 154 169 176 180 187 190 256 310 277 205 192 205 204 189 184 183 179 173 174 176 169 161 158 156 153 151 150
304 287 254 252 268 249 225 200 181 197 211 205 197 197 194 192 198 204 192 173 178 186 169 169 224 222 196 179 206 206 176 188 230 235 222 172 182 215 234 250 202 84 257 247 246 263 315 298 293 357 10 11 164 169 162 152 146 149 151 151 157 168 174 181 187 179 174 214 198 164 167 184 181 171 174 177 172 167 166 162 155 151 152 153 153 153 153
300 260 225 246 245 214 198 173 181 211 219 211 206 209 206 200 199 195 176 132 155 171 148 145 243 244 197 152 200 235 210 183 194 205 206 205 209 219 250 7 38 247 254 262 259 249 235 216 161 22 16 18 154 169 168 166 164 161 158 157 163 172 178 183 189 192 191 189 178 168 165 171 172 170 170 171 172 172 167 158 152 152 153 151 150 151 154
285 262 281 284 254 220 218 203 196 205 208 205 210 223 227 217 179 115 78 43 316 209 124 82 269 257 227 176 182 218 215 203 197 186 208 233 225 194 59 3 254 242 255 266 261 250 310 28 43 36 23 24 151 168 169 170 169 168 169 170 172 175 180 186 193 194 189 183 183 177 166 161 168 170 167 167 170 172 169 164 162 162 162 160 157 156 158
261 241 265 268 247 225 221 213 206 213 229 260 296 335 2 32 73 80 67 5 333 345 346 296 257 254 257 258 239 212 198 204 205 179 202 239 217 127 115 242 238 231 248 254 246 239 351 20 34 41 35 42 167 173 173 174 176 180 185 183 176 176 183 189 189 187 186 189 190 180 165 157 163 166 168 172 173 169 166 168 170 171 170 165 161 161 162
280 272 249 246 249 228 208 203 208 173 143 73 29 54 64 209 139 98 67 15 337 314 281 246 230 223 205 207 238 232 193 185 195 187 188 237 192 151 184 230 231 219 232 242 252 14 23 23 30 32 27 124 182 179 179 180 182 185 190 187 180 180 186 188 185 184 187 190 189 180 168 164 165 165 168 175 176 170 167 170 173 173 170 163 159 163 168
273 277 246 256 278 262 231 243 253 185 146 121 104 133 163 188 139 85 41 347 302 295 295 280 273 259 205 178 216 235 214 200 198 182 173 200 207 191 201 222 217 206 211 219 255 349 6 30 37 35 27 197 190 185 181 181 184 187 189 187 184 183 185 184 181 179 182 190 192 183 171 168 171 172 171 174 175 172 169 170 172 173 172 171 170 172 174
248 257 239 241 255 238 206 222 228 194 164 153 153 143 142 145 111 78 20 338 319 296 220 213 234 254 233 187 218 224 208 195 192 188 192 199 198 186 207 228 226 211 186 170 194 305 337 14 19 15 134 181 192 189 181 177 180 184 187 186 184 183 183 180 176 176 181 189 191 182 172 172 180 181 176 171 168 166 167 171 175 177 177 178 178 175 174
228 243 244 245 251 244 218 225 227 204 182 169 136 83 27 2 63 46 6 330 293 249 218 198 204 225 213 210 218 217 190 177 195 204 208 202 183 191 219 229 222 201 175 150 162 268 320 1 1 347 349 171 184 187 181 176 178 183 184 182 180 180 180 179 178 180 183 184 183 183 183 182 178 176 170 161 157 160 166 173 179 179 178 178 180 180 179
225 238 254 252 245 247 257 263 256 241 218 182 102 43 356 354 20 8 339 310 287 269 246 161 238 225 215 212 221 206 179 183 196 206 209 197 185 212 234 235 178 130 183 197 176 253 327 28 32 356 329 182 175 178 177 175 177 180 182 181 179 179 179 179 180 181 181 181 182 185 182 166 147 150 157 158 162 170 174 174 175 178 177 175 179 184 185